カタログに戻る

FENGYUN 1C DEB

運用中PO
NORAD 30859·DEBRIS·🇨🇳 China

打ち上げ May 10, 1999 から Taiyuan Satellite Launch Center

Loading…

次のパス (今後24時間)

TLE

最新Source: Space-Track

元期: Sep 14, 2026, 10:01 UTC

1 30859U 99025AWV 26257.41791095  .00006434  00000-0  15216-2 0  9992
2 30859  98.9154 329.4467 0027006 273.0436  86.7668 14.54264317 10322

AllMySatでFENGYUN 1C DEBをリアルタイム追跡

Download on the App Store